Volver al catálogo

COSMOS 1637

ActivoMilitarLEO
NORAD 15619·PAYLOAD·🇷🇺 Russia

Lanzado Mar 21, 1985 desde Plesetsk Cosmodrome

Loading…

Próximos Pases (próximas 24 horas)

TLE

ActualizadoSource: Space-Track

Época: Sep 14, 2026, 13:26 UTC

1 15619U 85023C   26257.56023799 -.00000001  00000-0  10240-3 0  9995
2 15619  74.0597 351.4718 0014688 159.3694 212.4262 12.47244794888927

Sigue COSMOS 1637 en tiempo real con AllMySat

Download on the App Store